BEIDOU-2 IGSO-7

Last updated on Sun Oct 06 2024 00:02:41 GMT+0000 (Coordinated Universal Time)

1 43539U 18057A 24279.58159221 -.00000100 00000+0 00000+0 0 9992 2 43539 55.1470 168.4282 0077971 233.0915 295.8529 1.00278506 22927
UTC large
Height (km)
Speed (km/s)
/
Latitude / Longitude
Inclination (degrees)
Orbital Period (minutes)
Azimuth
Elevation
Range (km)
Doppler Factor

Next 0 passes for location: London (51.5072 / 0.1276)

Sorry there are no passes over London.